Location: Juiz de Fora
(21.7500°S, 43.3330°W)
Time: 05:59:19
(UTC-03:00)

Hubble Space Telescope - Pass Details

Date: 19 June 2024
Orbit: 510 x 513 km, 28.5° (Epoch: 17 July)

Event Time Altitude Azimuth Distance (km) Brightness Sun altitude
Rises 19:02:57 0° 286° (WNW) 2,617 5.8 -23.4°
Reaches altitude 10° 19:05:11 10° 285° (WNW) 1,734 4.5 -23.9°
Enters shadow 19:08:34 60° 262° (W) 593 1.1 -24.6°
